[[{"header":{"parameterUnit":"m.s-1","parameterCategory":1,"la1":30.2991,"la2":30.254,"lo1":-89.0895,"lo2":-89.0444,"dy":0.0017,"dx":0.0017,"nx":28,"ny":28,"refTime":"2025-12-06T03:00:00:Z","depth":0,"parameterNumber":2,"parameterNumberName":"U-component_of_WINDS"},"data":[0,0,0,0,0,0,0,0,0,0,0,0,0,0,0,0,0,0,0,0,0,0,0,0,0,0,0,0,0,0,0,0,0,0,0,0,0,0,0,0,0,0,0,0,0,0,0,0,0,0,0,0,0,0,0,0,0,0,-1.2296,-1.2296,0,-1.2302,-1.2302,-1.2303,-1.2242,-1.224,-1.2239,-1.2237,-1.2246,-1.2248,-1.2249,0,0,0,0,0,0,0,0,0,0,0,0,0,-1.2232,-1.2234,-1.2296,-1.2296,-1.2296,-1.2302,-1.2302,-1.2303,-1.2242,-1.224,-1.2238,-1.2236,-1.2245,-1.2247,-1.2249,0,0,0,0,0,0,0,0,0,0,0,0,0,-1.2252,-1.2234,-1.2296,-1.2266,-1.2264,-1.2302,-1.2302,-1.2303,-1.2243,-1.224,-1.2238,-1.2235,-1.2244,-1.2247,-1.225,-1.2317,0,0,-1.2258,-1.2259,0,0,0,0,0,0,0,0,-1.2251,-1.2254,-1.2271,-1.2269,-1.2266,-1.2269,-1.2283,-1.2308,-1.2243,-1.2251,-1.2237,-1.2234,-1.2256,-1.2257,-1.2264,-1.2317,-1.2318,-1.2258,-1.226,-1.2261,-1.2262,0,0,0,0,0,0,0,-1.2249,-1.2253,-1.2298,-1.2271,-1.2268,-1.2254,-1.2254,-1.2288,-1.2267,-1.225,-1.2246,-1.2247,-1.2254,-1.2262,-1.2264,-1.2318,-1.2258,-1.2261,-1.2262,-1.2263,-1.2428,-1.2431,0,0,0,0,0,0,-1.2252,-1.2253,-1.2298,-1.2299,-1.2252,-1.2257,-1.2257,-1.227,-1.2267,-1.2264,-1.2249,-1.2244,-1.2258,-1.2261,-1.2264,-1.2343,-1.2261,-1.2264,-1.2265,-1.2425,-1.2429,-1.2432,0,0,0,0,0,0,-1.2251,-1.2256,-1.2298,-1.2274,-1.2279,-1.2261,-1.2276,-1.2272,-1.228,-1.2266,-1.2263,-1.2261,-1.2256,-1.226,-1.2304,-1.2343,-1.2265,-1.2267,-1.2422,-1.2426,-1.243,-1.2503,0,0,0,0,0,0,-1.2249,-1.2256,-1.2281,-1.2275,-1.228,-1.2338,-1.2279,-1.2274,-1.2284,-1.2278,-1.2276,-1.2274,-1.2255,-1.2301,-1.2307,-1.2345,-1.2269,-1.2419,-1.2424,-1.2429,-1.2497,-1.2509,-1.2519,0,0,0,0,0,-1.2247,-1.2301,-1.2283,-1.2289,-1.2311,-1.234,-1.2343,-1.232,-1.2288,-1.2313,-1.2304,-1.2274,-1.2337,-1.2306,-1.2312,-1.2352,-1.2416,-1.2422,-1.2428,-1.2492,-1.2506,-1.2519,0,0,0,0,0,0,-1.2312,-1.23,-1.2279,-1.2333,-1.2338,-1.233,-1.2361,-1.2336,-1.235,-1.2344,-1.2314,-1.2315,-1.2364,-1.2362,-1.2327,-1.2417,-1.2371,-1.2379,-1.2417,-1.2431,-1.2442,-1.2442,-1.2272,0,0,0,0,0,-1.2333,-1.2358,-1.2345,-1.2394,-1.2398,-1.2379,-1.2391,-1.2373,-1.2377,-1.2379,-1.2373,-1.2379,-1.2401,-1.2415,-1.2434,-1.2496,-1.2495,-1.2526,-1.2537,-1.2546,-1.2554,-1.2588,-1.2602,-1.2452,-1.2452,-1.2452,0,0,-1.2376,-1.2373,-1.239,-1.2408,-1.2409,-1.2436,-1.2381,-1.2412,-1.2432,-1.2384,-1.2425,-1.2422,-1.2426,-1.248,-1.2503,-1.248,-1.2595,-1.2554,-1.2562,-1.2564,-1.2596,-1.261,-1.2623,-1.2456,-1.2455,-1.2455,0,0,-1.2469,-1.2468,-1.2509,-1.2512,-1.2515,-1.2502,-1.2512,-1.2508,-1.2504,-1.2545,-1.251,-1.2533,-1.257,-1.2575,-1.2583,-1.2678,-1.2651,-1.2685,-1.2743,-1.2777,-1.2788,-1.2799,-1.2834,-1.2847,-1.2692,-1.2692,-1.2692,0,-1.2522,-1.2561,-1.2534,-1.2567,-1.2576,-1.2533,-1.2576,-1.258,-1.2589,-1.2597,-1.257,-1.2616,-1.2616,-1.2671,-1.2695,-1.2701,-1.2713,-1.2685,-1.2789,-1.2799,-1.2808,-1.2842,-1.2855,-1.2696,-1.2696,-1.2695,-1.2695,0,-1.2627,-1.2654,-1.2687,-1.2697,-1.271,-1.2748,-1.2727,-1.2744,-1.2724,-1.2715,-1.2758,-1.2756,-1.2774,-1.2786,-1.2767,-1.2838,-1.2824,-1.2793,-1.2747,-1.2827,-1.2858,-1.2871,-1.2702,-1.2701,-1.27,-1.2699,0,0,-1.2762,-1.2756,-1.2769,-1.2774,-1.2774,-1.2795,-1.2831,-1.2848,-1.2864,-1.2871,-1.2902,-1.2934,-1.2906,-1.2915,-1.2896,-1.2925,-1.3003,-1.2891,-1.2891,-1.2913,-1.3083,-1.3107,-1.3122,-1.2984,-1.2986,-1.2988,-1.3083,0,-1.2853,-1.2914,-1.2891,-1.2953,-1.2979,-1.2939,-1.297,-1.2974,-1.2966,-1.2987,-1.2979,-1.3003,-1.2963,-1.2968,-1.2995,-1.2987,-1.3036,-1.298,-1.3013,-1.3015,-1.3015,-1.3138,-1.3163,-1.3252,-1.3095,-1.3097,-1.3098,0,-1.2968,-1.298,-1.3046,-1.3043,-1.3052,-1.3081,-1.3096,-1.3116,-1.312,-1.3112,-1.3122,-1.3098,-1.3133,-1.3086,-1.3136,-1.3098,-1.311,-1.3108,-1.3111,-1.3115,-1.3062,-1.3146,-1.328,-1.3294,-1.3117,-1.3115,-1.3114,0,-1.3061,-1.3094,-1.3138,-1.3143,-1.314,-1.3161,-1.3161,-1.3163,-1.3175,-1.3188,-1.3196,-1.3213,-1.3223,-1.3237,-1.3218,-1.3185,-1.3271,-1.3222,-1.3267,-1.3268,-1.3288,-1.3287,-1.3428,-1.3294,-1.3293,-1.3293,-1.3293,0,-1.3166,-1.3209,-1.318,-1.3207,-1.3254,-1.3227,-1.3273,-1.3269,-1.3271,-1.3297,-1.3263,-1.3288,-1.3261,-1.3284,-1.3269,-1.3314,-1.3318,-1.3314,-1.3309,-1.3317,-1.3318,-1.3326,-1.332,-1.3297,-1.3296,-1.3295,-1.3295,0,-1.3279,-1.3262,-1.3307,-1.3301,-1.33,-1.3334,-1.3329,-1.3354,-1.3344,-1.3377,-1.3384,-1.3368,-1.3393,-1.3375,-1.3401,-1.3391,-1.345,-1.3436,-1.3448,-1.3445,-1.3492,-1.3488,-1.3643,-1.3663,-1.3515,-1.3517,-1.3518,0,-1.3348,-1.338,-1.3377,-1.3391,-1.3393,-1.3418,-1.343,-1.3405,-1.342,-1.3427,-1.3452,-1.3474,-1.3491,-1.3534,-1.3525,-1.3545,-1.3532,-1.3585,-1.3535,-1.3542,-1.3535,-1.3534,-1.3537,-1.3596,-1.3598,-1.3599,-1.36,0,-1.3473,-1.3463,-1.3482,-1.3498,-1.3514,-1.3526,-1.3535,-1.3549,-1.3524,-1.3542,-1.3567,-1.358,-1.3606,-1.363,-1.3646,-1.3646,-1.362,-1.3616,-1.3628,-1.3637,-1.3643,-1.3642,-1.3478,-1.3613,-1.3611,-1.361,-1.361,-1.3609,-1.3567,-1.3593,-1.3596,-1.3618,-1.3622,-1.3632,-1.3655,-1.3648,-1.3668,-1.3688,-1.3671,-1.3702,-1.3707,-1.3726,-1.373,-1.3754,-1.3732,-1.3749,-1.3754,-1.3758,-1.3766,-1.3638,-1.3757,-1.3756,-1.3756,-1.3756,-1.3755,0,-1.3691,-1.369,-1.3711,-1.3725,-1.3743,-1.3716,-1.3724,-1.3742,-1.3769,-1.3775,-1.3792,-1.3822,-1.3845,-1.3837,-1.3858,-1.3879,-1.3867,-1.3885,-1.3884,-1.3885,-1.3783,-1.3772,-1.3894,-1.3894,-1.3894,-1.3894,-1.3894,-1.3894,-1.3758,-1.3802,-1.3792,-1.3838,-1.3837,-1.3867,-1.3874,-1.3883,-1.3888,-1.3923,-1.3941,-1.3936,-1.3937,-1.3957,-1.3977,-1.3974,-1.3984,-1.4007,-1.4,-1.3906,-1.3892,-1.3879,-1.3868,-1.4009,-1.4009,-1.41,-1.4101,-1.4102]},{"header":{"parameterUnit":"m.s-1","parameterCategory":1,"la1":30.2991,"la2":30.254,"lo1":-89.0895,"lo2":-89.0444,"dy":0.0017,"dx":0.0017,"nx":28,"ny":28,"refTime":"2025-12-06T03:00:00:Z","depth":0,"parameterNumber":3,"parameterNumberName":"V-component_of_WINDS"},"data":[0,0,0,0,0,0,0,0,0,0,0,0,0,0,0,0,0,0,0,0,0,0,0,0,0,0,0,0,0,0,0,0,0,0,0,0,0,0,0,0,0,0,0,0,0,0,0,0,0,0,0,0,0,0,0,0,0,0,-1.3971,-1.3971,0,-1.3968,-1.3968,-1.3967,-1.3927,-1.3926,-1.3925,-1.3924,-1.392,-1.3921,-1.3922,0,0,0,0,0,0,0,0,0,0,0,0,0,-1.3942,-1.3943,-1.3971,-1.3971,-1.3971,-1.3968,-1.3968,-1.3967,-1.3927,-1.3926,-1.3925,-1.3924,-1.392,-1.3921,-1.3922,0,0,0,0,0,0,0,0,0,0,0,0,0,-1.3948,-1.3943,-1.3971,-1.395,-1.3949,-1.3968,-1.3968,-1.3967,-1.3927,-1.3926,-1.3924,-1.3923,-1.392,-1.3921,-1.3922,-1.396,0,0,-1.3926,-1.3926,0,0,0,0,0,0,0,0,-1.3948,-1.395,-1.3953,-1.3952,-1.395,-1.3946,-1.3956,-1.3965,-1.3928,-1.3935,-1.3924,-1.3922,-1.393,-1.393,-1.3933,-1.396,-1.396,-1.3926,-1.3927,-1.3927,-1.3928,0,0,0,0,0,0,0,-1.3948,-1.3949,-1.397,-1.3954,-1.3951,-1.3941,-1.394,-1.3957,-1.3941,-1.3935,-1.3932,-1.3932,-1.3929,-1.3932,-1.3933,-1.396,-1.3926,-1.3927,-1.3928,-1.3928,-1.4019,-1.402,0,0,0,0,0,0,-1.395,-1.3949,-1.397,-1.3969,-1.3945,-1.3943,-1.3942,-1.3949,-1.3941,-1.3938,-1.3933,-1.393,-1.393,-1.3931,-1.3932,-1.3977,-1.3927,-1.3929,-1.3929,-1.4017,-1.4019,-1.4021,0,0,0,0,0,0,-1.395,-1.3952,-1.397,-1.3959,-1.396,-1.3945,-1.3953,-1.395,-1.3953,-1.394,-1.3937,-1.3939,-1.3929,-1.3931,-1.3954,-1.3976,-1.3929,-1.393,-1.4015,-1.4018,-1.402,-1.4067,0,0,0,0,0,0,-1.3949,-1.3953,-1.3967,-1.3959,-1.3961,-1.3992,-1.3954,-1.3951,-1.3955,-1.3951,-1.3945,-1.3943,-1.3928,-1.3952,-1.3955,-1.3977,-1.3931,-1.4013,-1.4016,-1.4019,-1.4063,-1.4071,-1.4077,0,0,0,0,0,-1.3948,-1.398,-1.3968,-1.3971,-1.3979,-1.3993,-1.3994,-1.3977,-1.3957,-1.3972,-1.3963,-1.3943,-1.3973,-1.3955,-1.3958,-1.3981,-1.4012,-1.4016,-1.4019,-1.406,-1.4069,-1.4077,0,0,0,0,0,0,-1.3991,-1.3979,-1.3965,-1.3995,-1.3996,-1.3986,-1.4004,-1.3987,-1.3992,-1.3988,-1.3967,-1.3966,-1.3993,-1.3989,-1.3968,-1.4018,-1.3989,-1.3994,-1.4019,-1.4028,-1.4034,-1.4035,-1.3932,0,0,0,0,0,-1.4004,-1.4016,-1.4005,-1.4033,-1.4034,-1.4019,-1.4025,-1.4011,-1.4011,-1.401,-1.4004,-1.4004,-1.4013,-1.402,-1.4028,-1.4062,-1.4061,-1.408,-1.4087,-1.4092,-1.4096,-1.4115,-1.4123,-1.4033,-1.4033,-1.4033,0,0,-1.403,-1.4025,-1.4035,-1.4041,-1.404,-1.4054,-1.4019,-1.4035,-1.4045,-1.4013,-1.4035,-1.403,-1.4028,-1.4057,-1.407,-1.4055,-1.4121,-1.4097,-1.4102,-1.4103,-1.4119,-1.4128,-1.4135,-1.4036,-1.4035,-1.4035,0,0,-1.4086,-1.4084,-1.4107,-1.4106,-1.4105,-1.4095,-1.41,-1.4093,-1.4089,-1.4111,-1.4087,-1.4098,-1.4115,-1.4115,-1.4118,-1.4174,-1.4155,-1.4177,-1.4213,-1.4231,-1.4238,-1.4244,-1.4265,-1.4273,-1.4181,-1.4181,-1.4181,0,-1.412,-1.414,-1.4121,-1.4139,-1.4142,-1.4114,-1.4137,-1.4137,-1.4139,-1.4142,-1.4125,-1.4146,-1.4143,-1.4172,-1.4186,-1.4189,-1.4194,-1.4178,-1.4239,-1.4245,-1.425,-1.427,-1.4277,-1.4184,-1.4184,-1.4184,-1.4183,0,-1.4181,-1.4195,-1.4214,-1.4216,-1.4222,-1.4243,-1.4227,-1.4235,-1.4222,-1.4213,-1.4236,-1.4231,-1.4238,-1.4244,-1.423,-1.4271,-1.4262,-1.4242,-1.4213,-1.4262,-1.428,-1.4287,-1.4188,-1.4187,-1.4186,-1.4186,0,0,-1.4264,-1.4256,-1.4263,-1.4264,-1.426,-1.4271,-1.429,-1.4297,-1.4304,-1.4306,-1.4322,-1.4337,-1.4319,-1.4321,-1.4308,-1.4324,-1.4369,-1.4302,-1.4302,-1.4315,-1.4414,-1.4429,-1.4438,-1.4357,-1.4358,-1.4359,-1.4414,0,-1.4318,-1.4351,-1.4335,-1.4369,-1.4382,-1.4356,-1.4372,-1.4372,-1.4365,-1.4375,-1.4366,-1.4378,-1.4353,-1.4354,-1.4369,-1.4361,-1.4389,-1.4356,-1.4372,-1.4372,-1.4373,-1.4447,-1.4463,-1.4516,-1.4421,-1.4422,-1.4423,0,-1.4386,-1.4391,-1.4427,-1.4421,-1.4426,-1.4442,-1.4447,-1.4457,-1.4456,-1.4449,-1.4453,-1.4435,-1.4454,-1.4425,-1.445,-1.4428,-1.4433,-1.4431,-1.4432,-1.4433,-1.4401,-1.4451,-1.4532,-1.454,-1.4434,-1.4433,-1.4432,0,-1.4443,-1.4459,-1.4483,-1.4484,-1.4478,-1.449,-1.4487,-1.4485,-1.449,-1.4495,-1.4498,-1.4505,-1.4508,-1.4514,-1.4499,-1.4479,-1.4527,-1.4496,-1.4522,-1.4523,-1.4534,-1.4533,-1.4617,-1.4536,-1.4536,-1.4536,-1.4536,0,-1.4506,-1.4529,-1.4509,-1.4523,-1.4549,-1.453,-1.4555,-1.455,-1.4548,-1.4561,-1.4538,-1.4551,-1.4531,-1.4542,-1.453,-1.4553,-1.4555,-1.455,-1.4547,-1.4553,-1.4553,-1.4556,-1.4552,-1.4538,-1.4538,-1.4537,-1.4537,0,-1.4575,-1.4562,-1.4586,-1.4578,-1.4577,-1.4596,-1.4589,-1.4602,-1.4594,-1.4611,-1.4614,-1.46,-1.4611,-1.4597,-1.4607,-1.46,-1.4631,-1.4622,-1.4632,-1.4629,-1.4656,-1.4654,-1.4746,-1.4757,-1.4668,-1.4669,-1.467,0,-1.4616,-1.4633,-1.4628,-1.4635,-1.4634,-1.4646,-1.4652,-1.4634,-1.464,-1.4641,-1.4654,-1.4664,-1.4671,-1.4691,-1.4682,-1.4689,-1.4681,-1.4712,-1.4682,-1.4687,-1.4682,-1.4681,-1.4683,-1.4718,-1.472,-1.472,-1.4721,0,-1.4691,-1.4683,-1.4692,-1.4699,-1.4707,-1.4711,-1.4714,-1.4721,-1.4702,-1.4711,-1.4723,-1.4728,-1.4739,-1.4749,-1.4754,-1.4752,-1.4734,-1.4731,-1.4737,-1.4744,-1.4749,-1.4747,-1.4649,-1.4729,-1.4728,-1.4727,-1.4727,-1.4727,-1.4747,-1.4761,-1.476,-1.4771,-1.4771,-1.4774,-1.4786,-1.4779,-1.4789,-1.4796,-1.4785,-1.48,-1.4798,-1.4804,-1.4804,-1.4815,-1.4802,-1.4811,-1.4813,-1.4816,-1.4821,-1.4746,-1.4816,-1.4816,-1.4815,-1.4815,-1.4815,0,-1.4821,-1.4819,-1.4829,-1.4834,-1.4842,-1.4824,-1.4826,-1.4835,-1.4848,-1.4849,-1.4856,-1.487,-1.488,-1.4872,-1.488,-1.489,-1.4882,-1.4893,-1.4892,-1.4892,-1.4832,-1.4826,-1.49,-1.49,-1.49,-1.49,-1.49,-1.49,-1.4861,-1.4884,-1.4877,-1.49,-1.4898,-1.4912,-1.4915,-1.4918,-1.4918,-1.4935,-1.4943,-1.4938,-1.4935,-1.4943,-1.4951,-1.4948,-1.4952,-1.4966,-1.4961,-1.4905,-1.4897,-1.4889,-1.4883,-1.4967,-1.4967,-1.502,-1.5021,-1.5021]}]]